| time (UTC) | temp F | wind direction | speed MPH | gust MPH | rain 1hr in | rain 24hr in | rain mn in | humidity % | barometer mb |
| 20260504182503 | 55 | 252 | 7.0 | 15.0 | 0.00 | 0.00 | 0.00 | 33 | 1001.1 |
| 20260504182005 | 54 | 245 | 8.0 | 16.0 | 0.00 | 0.00 | 0.00 | 32 | 1001.2 |
| 20260504181504 | 54 | 232 | 8.0 | 16.0 | 0.00 | 0.00 | 0.00 | 33 | 1001.2 |
| 20260504181004 | 55 | 267 | 5.0 | 13.0 | 0.00 | 0.00 | 0.00 | 35 | 1001.2 |
| 20260504180504 | 55 | 215 | 7.0 | 12.0 | 0.00 | 0.00 | 0.00 | 33 | 1001.2 |
| 20260504180010 | 54 | 238 | 7.0 | 13.0 | 0.00 | 0.00 | 0.00 | 33 | 1001.1 |
| 20260504175504 | 54 | 250 | 7.0 | 14.0 | 0.00 | 0.00 | 0.00 | 35 | 1001.3 |
| 20260504175006 | 54 | 233 | 7.0 | 14.0 | 0.00 | 0.00 | 0.00 | 34 | 1001.4 |
| 20260504174515 | 54 | 271 | 7.0 | 14.0 | 0.00 | 0.00 | 0.00 | 34 | 1001.4 |
| 20260504174004 | 54 | 278 | 7.0 | 14.0 | 0.00 | 0.00 | 0.00 | 36 | 1001.4 |
| 20260504173504 | 53 | 332 | 5.0 | 13.0 | 0.00 | 0.00 | 0.00 | 36 | 1001.5 |
| 20260504173016 | 53 | 182 | 5.0 | 13.0 | 0.00 | 0.00 | 0.00 | 38 | 1001.5 |
| 20260504172507 | 52 | 278 | 7.0 | 13.0 | 0.00 | 0.00 | 0.00 | 35 | 1001.6 |
| 20260504172010 | 52 | 232 | 8.0 | 13.0 | 0.00 | 0.00 | 0.00 | 38 | 1001.6 |
| 20260504171515 | 52 | 317 | 4.0 | 14.0 | 0.00 | 0.00 | 0.00 | 39 | 1001.7 |
| 20260504171008 | 52 | 273 | 6.0 | 15.0 | 0.00 | 0.00 | 0.00 | 38 | 1001.8 |
| 20260504170504 | 52 | 243 | 9.0 | 15.0 | 0.00 | 0.00 | 0.00 | 37 | 1001.9 |
| 20260504151008 | 49 | 245 | 12.0 | 17.0 | 0.00 | 0.00 | 0.00 | 46 | 1002.3 |
| 20260504150507 | 49 | 273 | 9.0 | 17.0 | 0.00 | 0.00 | 0.00 | 47 | 1002.4 |
| 20260504141006 | 47 | 232 | 8.0 | 17.0 | 0.00 | 0.00 | 0.00 | 54 | 1002.5 |
| 20260504140506 | 47 | 271 | 11.0 | 19.0 | 0.00 | 0.00 | 0.00 | 54 | 1002.5 |
| 20260504130507 | 44 | 218 | 7.0 | 18.0 | 0.00 | 0.00 | 0.00 | 63 | 1002.7 |
| 20260504110504 | 39 | 261 | 8.0 | 15.0 | 0.00 | 0.00 | 0.00 | 74 | 1003.1 |
| 20260504100503 | 37 | 227 | 2.0 | 7.0 | 0.00 | 0.00 | 0.00 | 77 | 1003.2 |
| 20260504082007 | 39 | 242 | 5.0 | 10.0 | 0.00 | 0.00 | 0.00 | 78 | 1002.8 |
| 20260504081524 | 39 | 233 | 4.0 | 10.0 | 0.00 | 0.00 | 0.00 | 79 | 1002.8 |
| 20260504081007 | 39 | 268 | 4.0 | 9.0 | 0.00 | 0.00 | 0.00 | 79 | 1002.7 |
| 20260504080510 | 39 | 273 | 4.0 | 8.0 | 0.00 | 0.00 | 0.00 | 80 | 1002.8 |
| 20260504050508 | 38 | 260 | 3.0 | 6.0 | 0.00 | 0.00 | 0.00 | 91 | 1003.6 |
| 20260504050024 | 38 | 245 | 3.0 | 6.0 | 0.00 | 0.00 | 0.00 | 91 | 1003.7 |
| 20260504045509 | 38 | 273 | 2.0 | 4.0 | 0.00 | 0.00 | 0.00 | 91 | 1003.7 |
| 20260504045007 | 38 | 246 | 1.0 | 4.0 | 0.00 | 0.00 | 0.00 | 91 | 1003.8 |
| 20260504044534 | 38 | 261 | 3.0 | 6.0 | 0.00 | 0.00 | 0.00 | 91 | 1003.9 |
| 20260504044004 | 38 | 293 | 2.0 | 6.0 | 0.00 | 0.00 | 0.00 | 90 | 1003.9 |
| 20260504043506 | 38 | 283 | 2.0 | 4.0 | 0.00 | 0.00 | 0.00 | 90 | 1003.9 |
| 20260504043019 | 38 | 284 | 2.0 | 4.0 | 0.00 | 0.00 | 0.00 | 90 | 1004.2 |
| 20260504042503 | 38 | 269 | 2.0 | 4.0 | 0.00 | 0.00 | 0.00 | 90 | 1004.2 |
| 20260504042003 | 38 | 260 | 2.0 | 4.0 | 0.00 | 0.00 | 0.00 | 90 | 1004.2 |
| 20260504041517 | 38 | 278 | 2.0 | 4.0 | 0.00 | 0.00 | 0.00 | 90 | 1004.3 |
| 20260504041004 | 38 | 275 | 0.0 | 2.0 | 0.00 | 0.00 | 0.00 | 90 | 1004.4 |
| 20260504040508 | 38 | 275 | 1.0 | 4.0 | 0.00 | 0.01 | 0.00 | 90 | 1004.4 |
| 20260504040023 | 38 | 275 | 1.0 | 4.0 | 0.00 | 0.01 | 0.00 | 90 | 1004.5 |
| 20260504035507 | 38 | 280 | 2.0 | 4.0 | 0.00 | 0.01 | 0.01 | 90 | 1004.5 |
| 20260504035007 | 38 | 323 | 1.0 | 4.0 | 0.00 | 0.02 | 0.01 | 91 | 1004.5 |
| 20260504034525 | 38 | 283 | 1.0 | 4.0 | 0.00 | 0.02 | 0.01 | 91 | 1004.5 |
| 20260504034007 | 38 | 266 | 2.0 | 4.0 | 0.00 | 0.03 | 0.01 | 91 | 1004.6 |
| 20260504033508 | 38 | 277 | 2.0 | 4.0 | 0.00 | 0.03 | 0.01 | 91 | 1004.6 |
| 20260504033009 | 38 | 246 | 2.0 | 4.0 | 0.00 | 0.03 | 0.01 | 91 | 1004.6 |
| 20260504032504 | 38 | 287 | 1.0 | 7.0 | 0.00 | 0.03 | 0.01 | 91 | 1004.6 |
| 20260504032004 | 38 | 250 | 2.0 | 8.0 | 0.00 | 0.03 | 0.01 | 90 | 1004.5 |
| 20260504031519 | 38 | 261 | 2.0 | 8.0 | 0.00 | 0.03 | 0.01 | 91 | 1004.6 |
| 20260504031005 | 38 | 271 | 1.0 | 4.0 | 0.00 | 0.03 | 0.01 | 90 | 1004.6 |
| 20260504030507 | 38 | 302 | 2.0 | 4.0 | 0.00 | 0.03 | 0.01 | 90 | 1004.7 |
| 20260504030021 | 38 | 273 | 1.0 | 4.0 | 0.00 | 0.03 | 0.01 | 90 | 1004.7 |
| 20260504025506 | 38 | 277 | 2.0 | 4.0 | 0.00 | 0.03 | 0.01 | 90 | 1004.7 |
| 20260504025006 | 38 | 262 | 2.0 | 4.0 | 0.00 | 0.03 | 0.01 | 90 | 1004.6 |
| 20260504024524 | 38 | 248 | 2.0 | 3.0 | 0.00 | 0.03 | 0.01 | 90 | 1004.7 |
| 20260504024008 | 38 | 268 | 1.0 | 3.0 | 0.00 | 0.03 | 0.01 | 90 | 1004.8 |
| 20260504023507 | 39 | 281 | 1.0 | 3.0 | 0.00 | 0.03 | 0.01 | 90 | 1004.8 |
| 20260504023028 | 39 | 336 | 1.0 | 3.0 | 0.00 | 0.03 | 0.01 | 90 | 1004.7 |
| 20260504022511 | 39 | 284 | 1.0 | 3.0 | 0.00 | 0.03 | 0.01 | 90 | 1004.7 |
| 20260504022010 | 39 | 261 | 2.0 | 3.0 | 0.00 | 0.03 | 0.01 | 91 | 1004.8 |
| 20260504021514 | 38 | 226 | 1.0 | 3.0 | 0.00 | 0.03 | 0.01 | 90 | 1004.9 |
| 20260504021002 | 38 | 246 | 2.0 | 3.0 | 0.00 | 0.03 | 0.01 | 90 | 1004.9 |
| 20260504020504 | 38 | 233 | 2.0 | 3.0 | 0.00 | 0.03 | 0.01 | 90 | 1004.9 |
| 20260504020014 | 38 | 274 | 2.0 | 3.0 | 0.00 | 0.03 | 0.01 | 91 | 1005.0 |
| 20260504015507 | 38 | 274 | 2.0 | 2.0 | 0.00 | 0.03 | 0.01 | 91 | 1005.1 |
| 20260504015007 | 38 | 274 | 1.0 | 2.0 | 0.00 | 0.03 | 0.01 | 90 | 1005.1 |
| 20260504014522 | 38 | 274 | 1.0 | 2.0 | 0.00 | 0.03 | 0.01 | 90 | 1005.1 |
| 20260504014006 | 38 | 279 | 1.0 | 2.0 | 0.00 | 0.03 | 0.01 | 91 | 1005.1 |
| 20260504013509 | 38 | 299 | 0.0 | 2.0 | 0.00 | 0.03 | 0.01 | 91 | 1005.1 |
| 20260504013023 | 38 | 317 | 0.0 | 2.0 | 0.00 | 0.03 | 0.01 | 91 | 1005.2 |
| 20260504012507 | 38 | 317 | 0.0 | 2.0 | 0.00 | 0.03 | 0.01 | 91 | 1005.1 |
| 20260504012008 | 38 | 322 | 0.0 | 2.0 | 0.00 | 0.03 | 0.01 | 91 | 1005.2 |
| 20260504011526 | 38 | 321 | 1.0 | 2.0 | 0.00 | 0.03 | 0.01 | 91 | 1005.2 |
| 20260504011012 | 38 | 289 | 1.0 | 2.0 | 0.00 | 0.03 | 0.01 | 91 | 1005.2 |
| 20260504010509 | 38 | 352 | 0.0 | 2.0 | 0.00 | 0.03 | 0.01 | 91 | 1005.3 |
| 20260504010010 | 38 | 327 | 1.0 | 3.0 | 0.00 | 0.03 | 0.01 | 91 | 1005.3 |
| 20260504005506 | 38 | 55 | 1.0 | 3.0 | 0.00 | 0.03 | 0.01 | 90 | 1005.3 |
| 20260504005006 | 38 | 60 | 1.0 | 5.0 | 0.00 | 0.03 | 0.01 | 90 | 1005.2 |
| 20260504004519 | 38 | 53 | 1.0 | 6.0 | 0.00 | 0.03 | 0.01 | 90 | 1005.1 |
| 20260504004007 | 38 | 52 | 2.0 | 8.0 | 0.00 | 0.03 | 0.01 | 90 | 1005.1 |
| 20260504003511 | 38 | 76 | 4.0 | 8.0 | 0.00 | 0.03 | 0.01 | 90 | 1005.1 |
| 20260504003022 | 38 | 40 | 3.0 | 8.0 | 0.00 | 0.03 | 0.01 | 89 | 1005.1 |
| 20260504002508 | 38 | 36 | 4.0 | 7.0 | 0.00 | 0.03 | 0.01 | 89 | 1005.1 |
| 20260504002010 | 38 | 25 | 3.0 | 7.0 | 0.00 | 0.03 | 0.01 | 89 | 1005.0 |
| 20260504001527 | 38 | 36 | 2.0 | 7.0 | 0.00 | 0.03 | 0.01 | 89 | 1005.0 |
| 20260504001010 | 38 | 26 | 1.0 | 7.0 | 0.00 | 0.03 | 0.01 | 89 | 1005.0 |
| 20260504000510 | 39 | 42 | 4.0 | 9.0 | 0.00 | 0.03 | 0.01 | 88 | 1005.0 |
| 20260504000028 | 39 | 53 | 3.0 | 10.0 | 0.00 | 0.03 | 0.01 | 88 | 1005.0 |
| 20260503235506 | 39 | 15 | 5.0 | 10.0 | 0.00 | 0.03 | 0.01 | 88 | 1005.1 |
| 20260503235004 | 39 | 55 | 2.0 | 8.0 | 0.00 | 0.03 | 0.01 | 88 | 1005.1 |
| 20260503234519 | 39 | 36 | 3.0 | 8.0 | 0.00 | 0.03 | 0.01 | 87 | 1005.1 |
| 20260503234006 | 39 | 16 | 3.0 | 9.0 | 0.00 | 0.03 | 0.01 | 87 | 1005.1 |
| 20260503233506 | 40 | 340 | 3.0 | 9.0 | 0.00 | 0.03 | 0.01 | 86 | 1005.0 |
| 20260503233019 | 40 | 317 | 4.0 | 9.0 | 0.00 | 0.03 | 0.01 | 86 | 1004.9 |
| 20260503232508 | 40 | 360 | 4.0 | 10.0 | 0.00 | 0.03 | 0.01 | 85 | 1005.0 |
| 20260503232007 | 41 | 332 | 4.0 | 10.0 | 0.00 | 0.03 | 0.01 | 84 | 1004.9 |
| 20260503231524 | 41 | 319 | 3.0 | 8.0 | 0.00 | 0.03 | 0.01 | 84 | 1004.9 |
| 20260503231008 | 42 | 286 | 3.0 | 8.0 | 0.00 | 0.03 | 0.01 | 84 | 1004.9 |
| 20260503230508 | 42 | 260 | 5.0 | 8.0 | 0.00 | 0.03 | 0.01 | 81 | 1004.9 |
| 20260503230025 | 44 | 238 | 3.0 | 7.0 | 0.00 | 0.03 | 0.01 | 80 | 1004.8 |
| 20260503225509 | 44 | 275 | 1.0 | 4.0 | 0.00 | 0.03 | 0.01 | 80 | 1004.8 |
| 20260503225012 | 44 | 286 | 1.0 | 7.0 | 0.00 | 0.03 | 0.01 | 81 | 1004.8 |
| 20260503224527 | 44 | 269 | 3.0 | 7.0 | 0.00 | 0.03 | 0.01 | 80 | 1004.9 |
| 20260503224009 | 45 | 259 | 2.0 | 6.0 | 0.00 | 0.03 | 0.01 | 76 | 1004.9 |
| 20260503223505 | 46 | 292 | 1.0 | 8.0 | 0.00 | 0.03 | 0.01 | 76 | 1004.9 |
| 20260503223017 | 46 | 296 | 3.0 | 8.0 | 0.00 | 0.03 | 0.01 | 74 | 1005.0 |
| 20260503222506 | 46 | 318 | 4.0 | 7.0 | 0.00 | 0.03 | 0.01 | 74 | 1005.0 |
| 20260503222006 | 47 | 340 | 2.0 | 6.0 | 0.00 | 0.03 | 0.01 | 73 | 1004.9 |
| 20260503221521 | 47 | 331 | 3.0 | 8.0 | 0.00 | 0.03 | 0.01 | 73 | 1004.9 |
| 20260503221009 | 48 | 342 | 4.0 | 8.0 | 0.00 | 0.03 | 0.01 | 72 | 1004.9 |
| 20260503220513 | 48 | 346 | 2.0 | 5.0 | 0.00 | 0.03 | 0.01 | 71 | 1005.0 |
| 20260503220026 | 49 | 58 | 2.0 | 9.0 | 0.00 | 0.03 | 0.01 | 68 | 1004.9 |
| 20260503215509 | 48 | 352 | 2.0 | 9.0 | 0.00 | 0.03 | 0.01 | 69 | 1004.9 |
| 20260503215009 | 48 | 41 | 2.0 | 7.0 | 0.00 | 0.03 | 0.01 | 69 | 1004.9 |
| 20260503214539 | 48 | 21 | 3.0 | 8.0 | 0.00 | 0.03 | 0.01 | 70 | 1004.9 |
| 20260503214009 | 48 | 55 | 4.0 | 8.0 | 0.00 | 0.03 | 0.01 | 69 | 1004.9 |
| 20260503213511 | 48 | 75 | 4.0 | 8.0 | 0.00 | 0.03 | 0.01 | 70 | 1005.1 |
| 20260503213027 | 47 | 41 | 5.0 | 9.0 | 0.00 | 0.03 | 0.01 | 71 | 1005.1 |
| 20260503212510 | 47 | 57 | 5.0 | 10.0 | 0.00 | 0.03 | 0.01 | 70 | 1005.2 |
| 20260503212009 | 47 | 44 | 5.0 | 10.0 | 0.00 | 0.03 | 0.01 | 70 | 1005.3 |
| 20260503211523 | 47 | 75 | 5.0 | 10.0 | 0.00 | 0.03 | 0.01 | 68 | 1005.4 |
| 20260503211006 | 47 | 53 | 6.0 | 10.0 | 0.00 | 0.03 | 0.01 | 69 | 1005.4 |
| 20260503210506 | 48 | 28 | 4.0 | 9.0 | 0.00 | 0.03 | 0.01 | 69 | 1005.5 |
| 20260503210025 | 48 | 61 | 4.0 | 10.0 | 0.00 | 0.03 | 0.01 | 69 | 1005.5 |
| 20260503205510 | 48 | 47 | 5.0 | 11.0 | 0.00 | 0.03 | 0.01 | 67 | 1005.5 |
| 20260503205011 | 48 | 57 | 4.0 | 11.0 | 0.00 | 0.03 | 0.01 | 68 | 1005.5 |
| 20260503204530 | 48 | 28 | 6.0 | 11.0 | 0.00 | 0.03 | 0.01 | 67 | 1005.4 |
| 20260503204011 | 48 | 91 | 4.0 | 8.0 | 0.00 | 0.03 | 0.01 | 66 | 1005.4 |
| 20260503203510 | 48 | 60 | 4.0 | 6.0 | 0.00 | 0.03 | 0.01 | 66 | 1005.4 |
| 20260503203028 | 48 | 55 | 3.0 | 6.0 | 0.00 | 0.03 | 0.01 | 63 | 1005.5 |
| 20260503202510 | 48 | 49 | 3.0 | 9.0 | 0.00 | 0.03 | 0.01 | 62 | 1005.5 |
| 20260503202015 | 48 | 11 | 6.0 | 8.0 | 0.00 | 0.03 | 0.01 | 60 | 1005.6 |
| 20260503201518 | 48 | 36 | 3.0 | 9.0 | 0.00 | 0.03 | 0.01 | 63 | 1005.6 |
| 20260503201011 | 48 | 51 | 5.0 | 9.0 | 0.00 | 0.03 | 0.01 | 64 | 1005.6 |
| 20260503200509 | 49 | 49 | 2.0 | 8.0 | 0.00 | 0.03 | 0.01 | 64 | 1005.7 |
| 20260503200033 | 49 | 22 | 4.0 | 8.0 | 0.00 | 0.03 | 0.01 | 63 | 1005.7 |
| 20260503195510 | 49 | 315 | 4.0 | 8.0 | 0.00 | 0.03 | 0.01 | 67 | 1005.7 |
| 20260503195012 | 49 | 344 | 4.0 | 9.0 | 0.00 | 0.03 | 0.01 | 66 | 1005.7 |
| 20260503194527 | 49 | 333 | 5.0 | 9.0 | 0.00 | 0.03 | 0.01 | 66 | 1005.8 |
| 20260503194008 | 49 | 360 | 2.0 | 6.0 | 0.00 | 0.03 | 0.01 | 70 | 1005.8 |
| 20260503193508 | 48 | 326 | 2.0 | 8.0 | 0.00 | 0.03 | 0.01 | 72 | 1005.9 |
| 20260503193033 | 48 | 333 | 4.0 | 9.0 | 0.00 | 0.03 | 0.01 | 71 | 1006.0 |
| 20260503192510 | 48 | 36 | 3.0 | 9.0 | 0.00 | 0.03 | 0.01 | 71 | 1005.9 |
| 20260503192011 | 48 | 360 | 3.0 | 9.0 | 0.00 | 0.03 | 0.01 | 72 | 1005.7 |
| 20260503191531 | 48 | 315 | 4.0 | 9.0 | 0.00 | 0.03 | 0.01 | 72 | 1005.6 |
| 20260503191008 | 48 | 321 | 3.0 | 8.0 | 0.00 | 0.03 | 0.01 | 73 | 1005.8 |
| 20260503190513 | 47 | 333 | 3.0 | 8.0 | 0.00 | 0.03 | 0.01 | 74 | 1005.8 |
| 20260503190022 | 47 | 327 | 3.0 | 8.0 | 0.00 | 0.03 | 0.01 | 74 | 1005.9 |
| 20260503185509 | 47 | 330 | 4.0 | 8.0 | 0.00 | 0.03 | 0.01 | 74 | 1006.0 |
| 20260503185013 | 47 | 333 | 3.0 | 7.0 | 0.00 | 0.03 | 0.01 | 73 | 1006.1 |
| 20260503184533 | 47 | 318 | 3.0 | 8.0 | 0.00 | 0.03 | 0.01 | 74 | 1006.2 |
| 20260503184009 | 48 | 336 | 4.0 | 8.0 | 0.00 | 0.03 | 0.01 | 74 | 1006.3 |
| 20260503183512 | 47 | 317 | 4.0 | 8.0 | 0.00 | 0.03 | 0.01 | 75 | 1006.3 |
| 20260503183026 | 47 | 315 | 4.0 | 9.0 | 0.00 | 0.03 | 0.01 | 75 | 1006.4 |